EW8495 Weather Reports


time (UTC)temp
C
wind
direction
speed
KPH
gust
KPH
rain 1hr
cm
rain 24hr
cm
rain mn
cm
humidity
%
barometer
mb
20260906100039 23 237 0.0 4.8 0.00 0.00 0.00 92 1014.1
20260906095517 23 262 1.6 4.8 0.00 0.00 0.00 91 1014.0
20260906095022 23 249 1.6 4.8 0.00 0.00 0.00 91 1014.0
20260906094537 23 250 0.0 4.8 0.00 0.00 0.00 91 1014.0
20260906094017 23 246 1.6 4.8 0.00 0.00 0.00 91 1014.1
20260906093518 23 258 0.0 4.8 0.00 0.00 0.00 91 1013.9
20260906093043 23 250 0.0 4.8 0.00 0.00 0.00 91 1013.8
20260906092519 23 0 0.0 4.8 0.00 0.00 0.00 91 1013.9
20260906092019 23 280 1.6 4.8 0.00 0.00 0.00 91 1013.7
20260906091540 23 262 1.6 4.8 0.00 0.00 0.00 91 1013.7
20260906091023 23 247 0.0 4.8 0.00 0.00 0.00 91 1013.7
20260906090522 23 0 0.0 4.8 0.00 0.00 0.00 91 1013.7
20260906090040 23 0 0.0 3.2 0.00 0.00 0.00 91 1013.8
20260906085520 23 0 0.0 4.8 0.00 0.00 0.00 91 1013.7
20260906085019 23 236 1.6 4.8 0.00 0.00 0.00 91 1013.7
20260906084547 23 256 1.6 4.8 0.00 0.00 0.00 91 1013.6
20260906084020 23 255 0.0 3.2 0.00 0.00 0.00 91 1013.6
20260906083519 23 0 0.0 3.2 0.00 0.00 0.00 91 1013.7
20260906083036 23 0 0.0 3.2 0.00 0.00 0.00 90 1013.7
20260906082520 23 245 0.0 3.2 0.00 0.00 0.00 90 1013.7
20260906082019 23 0 0.0 3.2 0.00 0.00 0.00 90 1013.6
20260906081534 24 0 0.0 3.2 0.00 0.00 0.00 90 1013.5
20260906081018 24 0 0.0 3.2 0.00 0.00 0.00 90 1013.4
20260906080518 24 260 0.0 4.8 0.00 0.00 0.00 89 1013.4
20260906080050 24 0 0.0 4.8 0.00 0.00 0.00 89 1013.4
20260906075520 24 259 1.6 4.8 0.00 0.00 0.00 89 1013.4
20260906075020 24 242 0.0 4.8 0.00 0.00 0.00 89 1013.4
20260906074542 24 254 0.0 4.8 0.00 0.00 0.00 89 1013.4
20260906074019 24 235 0.0 4.8 0.00 0.00 0.00 89 1013.4
20260906073520 24 254 0.0 4.8 0.00 0.00 0.00 89 1013.4
20260906073034 24 0 0.0 6.4 0.00 0.00 0.00 89 1013.3
20260906072519 25 252 1.6 6.4 0.00 0.00 0.00 88 1013.4
20260906072021 25 0 1.6 6.4 0.00 0.00 0.00 88 1013.3
20260906071536 25 266 1.6 4.8 0.00 0.00 0.00 88 1013.3
20260906071019 25 288 1.6 11.3 0.00 0.00 0.00 88 1013.3
20260906070517 25 0 1.6 11.3 0.00 0.00 0.00 88 1013.4
20260906070040 25 0 1.6 4.8 0.00 0.00 0.00 88 1013.5
20260906065518 25 257 1.6 6.4 0.00 0.00 0.00 88 1013.5
20260906065020 25 229 1.6 6.4 0.00 0.00 0.00 89 1013.6
20260906064536 25 231 1.6 6.4 0.00 0.00 0.00 89 1013.6
20260906064019 25 247 1.6 6.4 0.00 0.00 0.00 89 1013.6
20260906063518 25 250 0.0 6.4 0.00 0.00 0.00 89 1013.6
20260906063040 25 257 0.0 6.4 0.00 0.00 0.00 89 1013.7
20260906062518 25 0 0.0 4.8 0.00 0.00 0.00 89 1013.7
20260906062021 25 0 0.0 4.8 0.00 0.00 0.00 89 1013.8
20260906061541 25 0 0.0 4.8 0.00 0.00 0.00 89 1013.8
20260906061021 25 0 0.0 3.2 0.00 0.00 0.00 89 1013.8
20260906060524 25 0 0.0 4.8 0.00 0.00 0.00 89 1013.9
20260906060047 25 252 0.0 4.8 0.00 0.00 0.00 89 1013.9
20260906055519 25 239 0.0 4.8 0.00 0.00 0.00 90 1013.9
20260906055018 25 250 0.0 4.8 0.00 0.00 0.00 90 1014.0
20260906054541 25 235 0.0 3.2 0.00 0.00 0.00 90 1014.0
20260906054019 25 222 0.0 4.8 0.00 0.00 0.00 90 1014.0
20260906053521 25 238 0.0 4.8 0.00 0.00 0.00 90 1014.0
20260906053038 25 252 0.0 4.8 0.00 0.00 0.00 90 1014.0
20260906052521 25 252 0.0 4.8 0.00 0.00 0.00 90 1014.0
20260906052022 25 272 0.0 3.2 0.00 0.00 0.00 90 1014.0
20260906051537 25 0 0.0 1.6 0.00 0.00 0.00 90 1014.0
20260906051019 25 0 0.0 0.0 0.00 0.00 0.00 89 1013.9
20260906050518 25 0 0.0 0.0 0.00 0.00 0.00 89 1013.8
20260906050044 25 0 0.0 0.0 0.00 0.00 0.00 89 1013.9
20260906045518 25 0 0.0 0.0 0.00 0.00 0.00 89 1014.0
20260906045022 25 0 0.0 0.0 0.00 0.00 0.00 88 1014.0
20260906044538 25 0 0.0 1.6 0.00 0.00 0.00 89 1013.8
20260906044023 25 0 0.0 1.6 0.00 0.00 0.00 89 1013.7
20260906043520 25 0 0.0 0.0 0.00 0.00 0.00 89 1013.6
20260906043037 25 0 0.0 0.0 0.00 0.00 0.00 89 1013.5
20260906042518 25 0 0.0 3.2 0.00 0.00 0.00 88 1013.4
20260906042019 25 0 0.0 3.2 0.00 0.00 0.00 88 1013.4
20260906041544 25 266 0.0 0.0 0.00 0.00 0.00 88 1013.4
20260906041018 25 0 0.0 0.0 0.00 0.00 0.00 87 1013.4
20260906040518 25 0 0.0 0.0 0.00 0.00 0.00 87 1013.4
20260906040046 25 0 0.0 0.0 0.00 0.00 0.00 87 1013.4
20260906035522 25 0 0.0 0.0 0.00 0.00 0.00 87 1013.3
20260906035018 25 0 0.0 0.0 0.00 0.00 0.00 86 1013.3
20260906034538 25 0 0.0 0.0 0.00 0.00 0.00 86 1013.2
20260906034019 25 0 0.0 0.0 0.00 0.00 0.00 86 1013.1
20260906033518 25 0 0.0 0.0 0.00 0.00 0.00 86 1013.2
20260906033037 25 0 0.0 3.2 0.00 0.00 0.00 86 1013.1
20260906032519 25 0 0.0 3.2 0.00 0.00 0.00 86 1013.1
20260906032018 25 275 0.0 4.8 0.00 0.00 0.00 87 1013.1
20260906031539 25 0 0.0 8.0 0.00 0.00 0.00 87 1013.0
20260906031017 25 0 1.6 8.0 0.00 0.00 0.00 86 1013.0
20260906030516 25 327 0.0 3.2 0.00 0.00 0.00 86 1013.2
20260906030037 25 0 0.0 1.6 0.00 0.00 0.00 85 1012.9
20260906025521 25 0 0.0 0.0 0.00 0.00 0.00 85 1012.7
20260906025022 25 0 0.0 0.0 0.00 0.00 0.00 84 1012.7
20260906024538 26 0 0.0 0.0 0.00 0.00 0.00 84 1012.7
20260906024019 26 0 0.0 1.6 0.00 0.00 0.00 84 1012.5
20260906023520 26 0 0.0 1.6 0.00 0.00 0.00 84 1012.5
20260906023044 26 0 0.0 1.6 0.00 0.00 0.00 83 1012.4
20260906022515 26 0 0.0 1.6 0.00 0.00 0.00 83 1012.3
20260906022023 26 0 0.0 1.6 0.00 0.00 0.00 83 1012.3
20260906021540 26 0 0.0 0.0 0.00 0.00 0.00 83 1012.3
20260906021019 26 0 0.0 0.0 0.00 0.00 0.00 82 1012.3
20260906020518 26 0 0.0 0.0 0.00 0.00 0.00 81 1012.3
20260906020039 26 0 0.0 0.0 0.00 0.00 0.00 81 1012.4
20260906015518 26 0 0.0 0.0 0.00 0.00 0.00 81 1012.3
20260906015019 26 0 0.0 1.6 0.00 0.00 0.00 81 1012.3
20260906014539 26 0 0.0 1.6 0.00 0.00 0.00 80 1012.2
20260906014017 27 0 0.0 3.2 0.00 0.00 0.00 80 1012.2
20260906013518 27 0 0.0 3.2 0.00 0.00 0.00 80 1012.1
20260906013037 27 0 1.6 3.2 0.00 0.00 0.00 80 1012.2
20260906012515 27 0 0.0 0.0 0.00 0.00 0.00 78 1012.1
20260906012016 27 0 0.0 0.0 0.00 0.00 0.00 77 1012.0
20260906011538 27 0 0.0 0.0 0.00 0.00 0.00 77 1012.1
20260906011020 27 0 0.0 0.0 0.00 0.00 0.00 76 1012.0
20260906010518 27 0 0.0 0.0 0.00 0.00 0.00 76 1012.0
20260906010037 28 0 0.0 0.0 0.00 0.00 0.00 75 1012.0
20260906005519 28 0 0.0 0.0 0.00 0.00 0.00 75 1011.9
20260906005022 28 0 0.0 0.0 0.00 0.00 0.00 75 1011.9
20260906004537 28 0 0.0 0.0 0.00 0.00 0.00 74 1011.8
20260906004021 28 0 0.0 1.6 0.00 0.00 0.00 74 1011.8
20260906003519 28 0 0.0 1.6 0.00 0.00 0.00 73 1011.8
20260906003041 28 0 0.0 0.0 0.00 0.00 0.00 72 1011.9
20260906002518 29 0 0.0 0.0 0.00 0.00 0.00 71 1011.9
20260906002016 29 0 0.0 0.0 0.00 0.00 0.00 72 1012.0
20260906001540 29 0 0.0 0.0 0.00 0.00 0.00 71 1012.0
20260906001019 29 0 0.0 3.2 0.00 0.00 0.00 70 1012.0
20260906000525 29 0 0.0 6.4 0.00 0.00 0.00 70 1012.1
20260906000040 29 341 1.6 6.4 0.00 0.00 0.00 70 1012.1
20260905235520 30 342 1.6 4.8 0.00 0.00 0.00 69 1012.2
20260905235016 30 0 0.0 6.4 0.00 0.00 0.00 69 1012.2
20260905234535 30 0 1.6 6.4 0.00 0.00 0.00 68 1012.2
20260905234021 30 13 1.6 8.0 0.00 0.00 0.00 69 1012.2
20260905233519 30 318 3.2 12.9 0.00 0.00 0.00 68 1012.1
20260905233057 30 314 3.2 12.9 0.00 0.00 0.00 67 1012.0
20260905232523 30 343 3.2 12.9 0.00 0.00 0.00 69 1011.9
20260905232021 30 304 1.6 6.4 0.00 0.00 0.00 71 1012.0
20260905231549 30 0 0.0 1.6 0.00 0.00 0.00 72 1011.7
20260905231019 30 0 0.0 1.6 0.00 0.00 0.00 70 1011.7
20260905230524 30 0 0.0 1.6 0.00 0.00 0.00 69 1011.7
20260905230045 30 0 0.0 1.6 0.00 0.00 0.00 71 1011.7
20260905225521 30 0 0.0 1.6 0.00 0.00 0.00 67 1011.6
20260905225020 30 333 0.0 8.0 0.00 0.00 0.00 66 1011.6
20260905224554 31 0 0.0 9.7 0.00 0.00 0.00 62 1011.6
20260905224019 31 352 1.6 9.7 0.00 0.00 0.00 64 1011.5
20260905223522 31 0 0.0 1.6 0.00 0.00 0.00 64 1011.5
20260905223039 31 0 0.0 1.6 0.00 0.00 0.00 63 1011.5
20260905222526 31 0 0.0 4.8 0.00 0.00 0.00 67 1011.4
20260905222017 31 0 1.6 4.8 0.00 0.00 0.00 66 1011.4
20260905221541 31 0 0.0 4.8 0.00 0.00 0.00 69 1011.4
20260905221024 31 0 0.0 6.4 0.00 0.00 0.00 66 1011.4
20260905220522 31 317 1.6 6.4 0.00 0.00 0.00 66 1011.4
20260905220035 31 337 0.0 8.0 0.00 0.00 0.00 67 1011.4
20260905215519 31 350 3.2 20.9 0.00 0.00 0.00 65 1011.4
20260905215018 31 28 4.8 20.9 0.00 0.00 0.00 65 1011.3
20260905214542 32 302 8.0 20.9 0.00 0.00 0.00 62 1011.5
20260905214018 32 99 0.0 3.2 0.00 0.00 0.00 68 1011.4
20260905213520 31 0 0.0 3.2 0.00 0.00 0.00 66 1011.4
20260905213039 31 101 0.0 3.2 0.00 0.00 0.00 65 1011.3
20260905212518 31 128 0.0 3.2 0.00 0.00 0.00 66 1011.4
20260905212024 31 0 0.0 4.8 0.00 0.00 0.00 65 1011.3
20260905211537 31 128 0.0 4.8 0.00 0.00 0.00 64 1011.4
20260905211019 31 218 0.0 3.2 0.00 0.00 0.00 62 1011.5
20260905210519 32 216 1.6 3.2 0.00 0.00 0.00 60 1011.5
20260905210038 32 0 0.0 4.8 0.00 0.00 0.00 58 1011.6
20260905205518 32 0 1.6 20.9 0.00 0.00 0.00 56 1011.6
20260905205023 32 110 6.4 20.9 0.00 0.00 0.00 53 1011.8
20260905204535 31 200 6.4 19.3 0.00 0.00 0.00 53 1012.0
20260905204020 32 128 8.0 19.3 0.00 0.00 0.00 50 1011.9
20260905203519 33 213 0.0 11.3 0.00 0.00 0.00 59 1011.8
20260905203038 34 269 4.8 11.3 0.00 0.00 0.00 53 1011.7
20260905202519 35 165 4.8 11.3 0.00 0.00 0.00 51 1011.7
20260905202019 36 163 0.0 11.3 0.00 0.00 0.00 48 1011.6
20260905201540 36 163 4.8 11.3 0.00 0.00 0.00 48 1011.8
20260905201020 36 236 1.6 12.9 0.00 0.00 0.00 48 1011.8
20260905200520 36 254 3.2 12.9 0.00 0.00 0.00 49 1011.8
20260905200037 36 0 1.6 6.4 0.00 0.00 0.00 49 1011.8
20260905195521 36 274 1.6 8.0 0.00 0.00 0.00 47 1011.8
20260905195020 36 142 3.2 8.0 0.00 0.00 0.00 46 1012.0
20260905194537 36 0 1.6 11.3 0.00 0.00 0.00 49 1012.0
20260905194019 35 240 1.6 11.3 0.00 0.00 0.00 49 1012.3
20260905193519 36 248 1.6 11.3 0.00 0.00 0.00 49 1012.2
20260905193033 36 135 3.2 11.3 0.00 0.00 0.00 48 1012.2
20260905192525 36 167 1.6 9.7 0.00 0.00 0.00 49 1012.3
20260905192018 36 230 1.6 8.0 0.00 0.00 0.00 51 1012.3
20260905191538 36 119 3.2 9.7 0.00 0.00 0.00 48 1012.5
20260905191019 36 229 1.6 12.9 0.00 0.00 0.00 49 1012.7
20260905190527 36 183 4.8 12.9 0.00 0.00 0.00 48 1012.7
20260905190056 35 180 3.2 11.3 0.00 0.00 0.00 49 1012.8
20260905185521 35 0 0.0 4.8 0.00 0.00 0.00 57 1012.8
20260905185019 35 0 0.0 4.8 0.00 0.00 0.00 55 1012.9
20260905184557 35 350 1.6 4.8 0.00 0.00 0.00 56 1013.1
20260905184018 34 37 0.0 4.8 0.00 0.00 0.00 61 1013.1
20260905183518 34 74 0.0 8.0 0.00 0.00 0.00 57 1013.1
20260905183036 34 0 0.0 8.0 0.00 0.00 0.00 59 1013.2
20260905182518 34 315 3.2 8.0 0.00 0.00 0.00 57 1013.1
20260905182018 35 37 1.6 6.4 0.00 0.00 0.00 58 1013.2
20260905181543 35 0 0.0 6.4 0.00 0.00 0.00 59 1013.3
20260905181022 34 223 1.6 6.4 0.00 0.00 0.00 59 1013.4
20260905180521 34 313 1.6 12.9 0.00 0.00 0.00 58 1013.4
20260905180036 34 94 1.6 12.9 0.00 0.00 0.00 57 1013.4
20260905175521 34 296 3.2 12.9 0.00 0.00 0.00 59 1013.4
20260905175020 34 319 1.6 9.7 0.00 0.00 0.00 60 1013.4
20260905174544 34 344 1.6 6.4 0.00 0.00 0.00 64 1013.5
20260905174018 34 42 1.6 6.4 0.00 0.00 0.00 63 1013.5
20260905173519 34 0 0.0 6.4 0.00 0.00 0.00 61 1013.5
20260905173040 34 360 1.6 8.0 0.00 0.00 0.00 60 1013.5
20260905172516 33 0 1.6 8.0 0.00 0.00 0.00 63 1013.7
20260905172021 33 126 0.0 9.7 0.00 0.00 0.00 63 1014.0
20260905171539 33 113 4.8 9.7 0.00 0.00 0.00 62 1014.1
20260905171020 33 167 1.6 6.4 0.00 0.00 0.00 60 1014.1
20260905170520 33 34 1.6 6.4 0.00 0.00 0.00 60 1014.2
20260905170035 33 322 1.6 6.4 0.00 0.00 0.00 63 1014.1
20260905165519 33 0 1.6 4.8 0.00 0.00 0.00 60 1014.2
20260905165019 33 311 0.0 4.8 0.00 0.00 0.00 62 1014.3
20260905164535 33 309 1.6 4.8 0.00 0.00 0.00 64 1014.4
20260905164017 32 167 1.6 4.8 0.00 0.00 0.00 60 1014.4
20260905163516 32 105 1.6 6.4 0.00 0.00 0.00 62 1014.4
20260905163040 32 90 1.6 6.4 0.00 0.00 0.00 63 1014.4
20260905162520 33 41 1.6 9.7 0.00 0.00 0.00 63 1014.4
20260905162021 33 125 3.2 9.7 0.00 0.00 0.00 63 1014.3
20260905161537 33 292 1.6 6.4 0.00 0.00 0.00 61 1014.4
20260905161020 32 348 0.0 4.8 0.00 0.00 0.00 63 1014.5
20260905160519 32 196 0.0 4.8 0.00 0.00 0.00 62 1014.5
20260905160036 32 336 1.6 4.8 0.00 0.00 0.00 61 1014.7
20260905155517 32 0 0.0 8.0 0.00 0.00 0.00 60 1014.8
20260905155018 32 352 1.6 9.7 0.00 0.00 0.00 63 1014.8
20260905154540 32 310 1.6 11.3 0.00 0.00 0.00 61 1014.7
20260905154020 32 15 1.6 11.3 0.00 0.00 0.00 62 1014.7
20260905153521 32 0 1.6 6.4 0.00 0.00 0.00 64 1014.7
20260905153038 32 42 1.6 6.4 0.00 0.00 0.00 61 1014.9
20260905152521 32 0 0.0 6.4 0.00 0.00 0.00 63 1015.0
20260905152020 32 333 1.6 12.9 0.00 0.00 0.00 62 1014.8
20260905151542 32 329 1.6 17.7 0.00 0.00 0.00 64 1014.8
20260905151019 31 352 3.2 17.7 0.00 0.00 0.00 64 1014.7
20260905150520 31 360 6.4 17.7 0.00 0.00 0.00 63 1014.8
20260905150042 31 352 4.8 12.9 0.00 0.00 0.00 68 1014.8
20260905145517 31 341 3.2 12.9 0.00 0.00 0.00 67 1014.7
20260905145019 31 325 3.2 12.9 0.00 0.00 0.00 65 1014.7
20260905144543 31 350 4.8 9.7 0.00 0.00 0.00 67 1014.9
20260905144020 31 333 1.6 6.4 0.00 0.00 0.00 67 1014.9
20260905143516 31 0 1.6 6.4 0.00 0.00 0.00 66 1014.8
20260905143039 31 320 1.6 4.8 0.00 0.00 0.00 69 1014.8
20260905142523 30 0 1.6 4.8 0.00 0.00 0.00 69 1014.9
20260905142018 30 0 0.0 1.6 0.00 0.00 0.00 75 1014.8
20260905141543 30 0 0.0 1.6 0.00 0.00 0.00 72 1014.7
20260905141020 30 0 0.0 4.8 0.00 0.00 0.00 69 1014.7
20260905140519 30 0 0.0 4.8 0.00 0.00 0.00 71 1014.7
20260905140041 30 141 0.0 4.8 0.00 0.00 0.00 71 1014.7
20260905135516 30 117 0.0 3.2 0.00 0.00 0.00 73 1014.7
20260905135018 29 0 0.0 1.6 0.00 0.00 0.00 75 1014.6
20260905134537 29 0 0.0 1.6 0.00 0.00 0.00 74 1014.6
20260905134023 29 0 0.0 3.2 0.00 0.00 0.00 75 1014.6
20260905133520 28 0 0.0 3.2 0.00 0.00 0.00 73 1014.7
20260905133037 28 0 0.0 3.2 0.00 0.00 0.00 75 1014.7
20260905132522 28 115 0.0 3.2 0.00 0.00 0.00 76 1014.7
20260905132020 28 0 1.6 6.4 0.00 0.00 0.00 77 1014.7
20260905131553 28 150 1.6 6.4 0.00 0.00 0.00 78 1014.7
20260905131018 27 161 0.0 6.4 0.00 0.00 0.00 81 1014.8
20260905130519 27 0 1.6 6.4 0.00 0.00 0.00 82 1014.9
20260905130040 26 161 0.0 3.2 0.00 0.00 0.00 88 1014.9
20260905125518 25 161 0.0 1.6 0.00 0.00 0.00 90 1014.9
20260905125018 25 0 0.0 1.6 0.00 0.00 0.00 90 1014.9
20260905124548 25 0 0.0 1.6 0.00 0.00 0.00 91 1014.9
20260905124022 25 0 0.0 1.6 0.00 0.00 0.00 91 1014.9
20260905123519 25 0 0.0 0.0 0.00 0.00 0.00 91 1015.0
20260905123053 24 0 0.0 0.0 0.00 0.00 0.00 91 1015.1
20260905122520 24 0 0.0 0.0 0.00 0.00 0.00 91 1015.1
20260905122020 24 0 0.0 0.0 0.00 0.00 0.00 91 1015.0
20260905121536 24 0 0.0 0.0 0.00 0.00 0.00 91 1015.0
20260905121017 24 0 0.0 0.0 0.00 0.00 0.00 90 1014.9
20260905120522 24 0 0.0 0.0 0.00 0.00 0.00 90 1015.0
20260905120040 24 0 0.0 0.0 0.00 0.00 0.00 90 1014.8
20260905115518 24 0 0.0 0.0 0.00 0.00 0.00 90 1014.9
20260905115021 24 0 0.0 0.0 0.00 0.00 0.00 89 1014.8
20260905114544 24 0 0.0 1.6 0.00 0.00 0.00 89 1014.8
20260905114018 24 0 0.0 1.6 0.00 0.00 0.00 90 1014.9
20260905113518 24 0 0.0 3.2 0.00 0.00 0.00 89 1014.9
20260905113041 24 0 0.0 3.2 0.00 0.00 0.00 89 1014.7
20260905112516 24 161 0.0 1.6 0.00 0.00 0.00 88 1014.6
20260905112019 25 0 0.0 1.6 0.00 0.00 0.00 88 1014.5
20260905111550 25 0 0.0 1.6 0.00 0.00 0.00 88 1014.4
20260905111023 25 0 0.0 1.6 0.00 0.00 0.00 87 1014.3
20260905110520 25 0 0.0 1.6 0.00 0.00 0.00 87 1014.1
20260905110037 25 0 0.0 1.6 0.00 0.00 0.00 87 1014.0
20260905105521 25 0 0.0 3.2 0.00 0.00 0.00 87 1014.0
20260905105019 25 161 0.0 3.2 0.00 0.00 0.00 86 1013.9
20260905104540 25 161 0.0 3.2 0.00 0.00 0.00 85 1013.9
20260905104018 25 0 0.0 1.6 0.00 0.00 0.00 84 1013.9
20260905103520 25 0 0.0 3.2 0.00 0.00 0.00 84 1013.9
20260905103038 25 0 0.0 4.8 0.00 0.00 0.00 84 1014.0
20260905102519 25 161 0.0 8.0 0.00 0.00 0.00 84 1014.1
20260905102020 25 198 1.6 8.0 0.00 0.00 0.00 85 1014.1
20260905101541 25 187 1.6 6.4 0.00 0.00 0.00 85 1014.1
20260905101020 25 187 0.0 1.6 0.00 0.00 0.00 87 1014.2
20260905100520 25 0 0.0 3.2 0.00 0.00 0.00 87 1014.2